This is the latest recevied weather packets stored in our database for station/object OK2JF-6. If no packets are shown the sender has not sent any weather packets the latest 10 day(s).
| Time | Temp. | Humidity | Pressure | Rain* | Wind** | Luminosity | Snow |
|---|---|---|---|---|---|---|---|
| 1776920717 | 2.78° C | 80% | 1092.9 hPa | 0 mm | - | 32 W/m² | - |
| 1776920418 | 2.78° C | 80% | 1092.9 hPa | 0 mm | - | 27 W/m² | - |
| 1776920223 | 2.22° C | 80% | 1093 hPa | 0 mm | - | 23 W/m² | - |
| 1776919803 | 2.22° C | 81% | 1093.1 hPa | 0 mm | - | 21 W/m² | - |
| 1776919563 | 2.22° C | 82% | 1092.9 hPa | 0 mm | - | 19 W/m² | - |
| 1776919443 | 2.22° C | 82% | 1093 hPa | 0 mm | - | 17 W/m² | - |
| 1776918723 | 1.67° C | 82% | 1093 hPa | 0 mm | - | 14 W/m² | - |
| 1776918603 | 1.67° C | 83% | 1093.1 hPa | 0 mm | - | 13 W/m² | - |
| 1776918123 | 1.67° C | 81% | 1093.1 hPa | 0 mm | - | 11 W/m² | - |
| 1776917883 | 1.67° C | 81% | 1093 hPa | 0 mm | - | 10 W/m² | - |
| 1776917583 | 1.67° C | 82% | 1093 hPa | 0 mm | - | 8 W/m² | - |
| 1776917418 | 1.67° C | 82% | 1093 hPa | 0 mm | - | 7 W/m² | - |
| 1776917224 | 1.67° C | 82% | 1093.1 hPa | 0 mm | - | 6 W/m² | - |
| 1776917043 | 1.67° C | 82% | 1093 hPa | 0 mm | - | 4 W/m² | - |
| 1776916818 | 1.67° C | 82% | 1093.4 hPa | 0 mm | - | 3 W/m² | - |
| 1776916744 | 1.67° C | 82% | 1093.1 hPa | 0 mm | - | 3 W/m² | - |
| 1776915663 | 1.67° C | 81% | 1093.1 hPa | 0 mm | - | 0 W/m² | - |
| 1776915438 | 1.67° C | 81% | 1092.9 hPa | 0 mm | - | 0 W/m² | - |
| 1776915243 | 1.67° C | 80% | 1093.1 hPa | 0 mm | - | 0 W/m² | - |
| 1776915069 | 1.67° C | 80% | 1092.9 hPa | 0 mm | - | 0 W/m² | - |
| 1776915003 | 1.67° C | 80% | 1092.9 hPa | 0 mm | - | 0 W/m² | - |
| 1776914897 | 1.67° C | 81% | 1093.1 hPa | 0 mm | - | 0 W/m² | - |
| 1776914463 | 1.67° C | 79% | 1093 hPa | 0 mm | - | 0 W/m² | - |
| 1776914404 | 1.67° C | 80% | 1092.9 hPa | 0 mm | - | 0 W/m² | - |
| 1776914225 | 1.67° C | 78% | 1092.8 hPa | 0 mm | - | 0 W/m² | - |
* Rain latest hour (hover to see other rain measurements)
** Current wind speed in m/s (hover to see current wind gust speed)